Hourly Data Report for October 31, 2015

All times are specified in Local Standard Time (LST). Add 1 hour to adjust for Daylight Saving Time where and when it is observed.

QIKIQTARJUAQ A
NUNAVUT

67°32'48.000" N
64°01'54.000" W
5.50 m
2400577
YVM

Download Data

Hourly Data (October 2015)
Hourly Data Report for October 31, 2015
Temp Definition
°C
Dew Point Temp Definition
°C
Rel Hum Definition
%
Wind Dir Definition
10's deg

Wind Spd Definition
km/h
Visibility Definition
km
Stn Press Definition
kPa
Hmdx Definition


Wind Chill Definition


Weather Definition


TIME
00:00 Legend Double Dagger -5.8 -8.7 80 4 9 16.1 100.00   -10 Snow
01:00 Legend Double Dagger -5.7 -8.2 83 1 9 16.1 100.00   -10 Snow
02:00 Legend Double Dagger -5.7 -8.7 79 1 17 16.1 100.00   -12 LegendNANA
03:00 Legend Double Dagger -5.9 -9.5 76 35 9 16.1 100.02   -10 LegendNANA
04:00 Legend Double Dagger -6.0 -9.2 78 35 5 16.1 100.03   -8 LegendNANA
05:00 Legend Double Dagger -6.1 -9.7 76 36 8 16.1 100.05   -10 LegendNANA
06:00 Legend Double Dagger -6.0 -8.9 80 2 9 16.1 100.08   -10 LegendNANA
07:00 Legend Double Dagger -5.9 -8.8 80 36 13 16.1 100.08   -11 LegendNANA
08:00 Legend Double Dagger -6.1 -8.9 81 2 13 16.1 100.11   -11 LegendNANA
09:00 Legend Double Dagger -6.0 -8.8 81 36 13 16.1 100.09   -11 LegendNANA
10:00 Legend Double Dagger -6.1 -9.2 79 36 22 16.1 100.11   -13 LegendNANA
11:00 Legend Double Dagger -6.2 -9.3 79 36 17 16.1 100.13   -12 LegendNANA
12:00 Legend Double Dagger -6.4 -9.5 79 36 17 16.1 100.17   -13 LegendNANA
13:00 Legend Double Dagger -6.6 -9.9 78 36 18 16.1 100.20   -13 LegendNANA
14:00 Legend Double Dagger -7.0 -10.7 75 32 17 16.1 100.25   -13 LegendNANA
15:00 Legend Double Dagger -7.1 -10.8 75 32 21 16.1 100.32   -14 LegendNANA
16:00 Legend Double Dagger -7.4 -11.1 75 32 22 16.1 100.37   -15 LegendNANA
17:00 Legend Double Dagger -7.6 -11.8 72 32 15 16.1 100.44   -14 LegendNANA
18:00 Legend Double Dagger -9.8 -13.2 76 LegendMM 9 16.1 100.49   -15 LegendNANA
19:00 Legend Double Dagger -9.4 -13.0 76 18 15 16.1 100.54   -16 LegendNANA
20:00 Legend Double Dagger -10.4 -13.8 76 13 8 16.1 100.58   -15 LegendNANA
21:00 Legend Double Dagger -9.3 -12.8 76 15 5 16.1 100.60   -12 LegendNANA
22:00 Legend Double Dagger -10.0 -12.9 80 16 5 16.1 100.61   -13 LegendNANA
23:00 Legend Double Dagger -10.9 -14.1 78 19 13 16.1 100.65   -17 LegendNANA

Notes on Data Quality.

Legend

  • E = Estimated
  • M = Missing
  • NA = Not Available
  • ‡ = Partner data that is not subject to review by the National Climate Archives
Date modified: